Year,Month,Day,Hour,Minute,Value (Times are PST for temperature in C)
2017,09,20,00,00,6.40
2017,09,20,00,01,6.40
2017,09,20,00,02,6.40
2017,09,20,00,03,6.40
2017,09,20,00,04,6.40
2017,09,20,00,05,6.30
2017,09,20,00,06,6.30
2017,09,20,00,07,6.30
2017,09,20,00,08,6.30
2017,09,20,00,09,6.30
2017,09,20,00,10,6.30
2017,09,20,00,11,6.30
2017,09,20,00,12,6.20
2017,09,20,00,13,6.20
2017,09,20,00,14,6.20
2017,09,20,00,15,6.20
2017,09,20,00,16,6.20
2017,09,20,00,17,6.20
2017,09,20,00,18,6.10
2017,09,20,00,19,6.10
2017,09,20,00,20,6.10
2017,09,20,00,21,6.10
2017,09,20,00,22,6.10
2017,09,20,00,23,6.10
2017,09,20,00,24,6.10
2017,09,20,00,25,6.00
2017,09,20,00,26,6.00
2017,09,20,00,27,6.00
2017,09,20,00,28,6.00
2017,09,20,00,29,6.00
2017,09,20,00,30,5.90
2017,09,20,00,31,5.90
2017,09,20,00,32,5.90
2017,09,20,00,33,5.90
2017,09,20,00,34,5.90
2017,09,20,00,35,5.90
2017,09,20,00,36,5.90
2017,09,20,00,37,5.80
2017,09,20,00,38,5.80
2017,09,20,00,39,5.80
2017,09,20,00,40,5.80
2017,09,20,00,41,5.80
2017,09,20,00,42,5.80
2017,09,20,00,43,5.80
2017,09,20,00,44,5.80
2017,09,20,00,45,5.80
2017,09,20,00,46,5.80
2017,09,20,00,47,5.80
2017,09,20,00,48,5.80
2017,09,20,00,49,5.80
2017,09,20,00,50,5.80
2017,09,20,00,51,5.80
2017,09,20,00,52,5.70
2017,09,20,00,53,5.70
2017,09,20,00,54,5.70
2017,09,20,00,55,5.70
2017,09,20,00,56,5.70
2017,09,20,00,57,5.70
2017,09,20,00,58,5.70
2017,09,20,00,59,5.70
2017,09,20,01,00,5.70
2017,09,20,01,01,5.70
2017,09,20,01,02,5.70
2017,09,20,01,03,5.70
2017,09,20,01,04,5.70
2017,09,20,01,05,5.70
2017,09,20,01,06,5.70
2017,09,20,01,07,5.70
2017,09,20,01,08,5.70
2017,09,20,01,09,5.70
2017,09,20,01,10,5.70
2017,09,20,01,11,5.70
2017,09,20,01,12,5.70
2017,09,20,01,13,5.70
2017,09,20,01,14,5.70
2017,09,20,01,15,5.70
2017,09,20,01,16,5.70
2017,09,20,01,17,5.80
2017,09,20,01,18,5.80
2017,09,20,01,19,5.80
2017,09,20,01,20,5.80
2017,09,20,01,21,5.80
2017,09,20,01,22,5.80
2017,09,20,01,23,5.80
2017,09,20,01,24,5.80
2017,09,20,01,25,5.80
2017,09,20,01,26,5.80
2017,09,20,01,27,5.80
2017,09,20,01,28,5.80
2017,09,20,01,29,5.80
2017,09,20,01,30,5.80
2017,09,20,01,31,5.80
2017,09,20,01,32,5.80
2017,09,20,01,33,5.80
2017,09,20,01,34,5.80
2017,09,20,01,35,5.80
2017,09,20,01,36,5.80
2017,09,20,01,37,5.80
2017,09,20,01,38,5.80
2017,09,20,01,39,5.80
2017,09,20,01,40,5.80
2017,09,20,01,41,5.80
2017,09,20,01,42,5.80
2017,09,20,01,43,5.80
2017,09,20,01,44,5.80
2017,09,20,01,45,5.80
2017,09,20,01,46,5.80
2017,09,20,01,47,5.70
2017,09,20,01,48,5.70
2017,09,20,01,49,5.70
2017,09,20,01,50,5.70
2017,09,20,01,51,5.70
2017,09,20,01,52,5.70
2017,09,20,01,53,5.70
2017,09,20,01,54,5.70
2017,09,20,01,55,5.70
2017,09,20,01,56,5.70
2017,09,20,01,57,5.70
2017,09,20,01,58,5.70
2017,09,20,01,59,5.70
2017,09,20,02,00,5.70
2017,09,20,02,01,5.70
2017,09,20,02,02,5.70
2017,09,20,02,03,5.70
2017,09,20,02,04,5.70
2017,09,20,02,05,5.70
2017,09,20,02,06,5.70
2017,09,20,02,07,5.70
2017,09,20,02,08,5.70
2017,09,20,02,09,5.70
2017,09,20,02,10,5.70
2017,09,20,02,11,5.70
2017,09,20,02,12,5.80
2017,09,20,02,13,5.80
2017,09,20,02,14,5.80
2017,09,20,02,15,5.80
2017,09,20,02,16,5.80
2017,09,20,02,17,5.80
2017,09,20,02,18,5.90
2017,09,20,02,19,5.90
2017,09,20,02,20,5.90
2017,09,20,02,21,5.90
2017,09,20,02,22,5.90
2017,09,20,02,23,5.90
2017,09,20,02,24,5.90
2017,09,20,02,25,5.90
2017,09,20,02,26,5.90
2017,09,20,02,27,5.90
2017,09,20,02,28,5.90
2017,09,20,02,29,5.90
2017,09,20,02,30,5.90
2017,09,20,02,31,5.80
2017,09,20,02,32,5.80
2017,09,20,02,33,5.80
2017,09,20,02,34,5.80
2017,09,20,02,35,5.80
2017,09,20,02,36,5.80
2017,09,20,02,37,5.80
2017,09,20,02,38,5.80
2017,09,20,02,39,5.80
2017,09,20,02,40,5.90
2017,09,20,02,41,5.90
2017,09,20,02,42,5.90
2017,09,20,02,43,5.90
2017,09,20,02,44,5.90
2017,09,20,02,45,5.90
2017,09,20,02,46,5.90
2017,09,20,02,47,5.90
2017,09,20,02,48,5.90
2017,09,20,02,49,5.90
2017,09,20,02,50,5.90
2017,09,20,02,51,5.90
2017,09,20,02,52,5.90
2017,09,20,02,53,5.90
2017,09,20,02,54,5.90
2017,09,20,02,55,5.90
2017,09,20,02,56,5.90
2017,09,20,02,57,5.90
2017,09,20,02,58,5.90
2017,09,20,02,59,5.90
2017,09,20,03,00,5.90
2017,09,20,03,01,5.80
2017,09,20,03,02,5.80
2017,09,20,03,03,5.80
2017,09,20,03,04,5.80
2017,09,20,03,05,5.80
2017,09,20,03,06,5.80
2017,09,20,03,07,5.80
2017,09,20,03,08,5.80
2017,09,20,03,09,5.80
2017,09,20,03,10,5.80
2017,09,20,03,11,5.80
2017,09,20,03,12,5.80
2017,09,20,03,13,5.80
2017,09,20,03,14,5.80
2017,09,20,03,15,5.80
2017,09,20,03,16,5.80
2017,09,20,03,17,5.80
2017,09,20,03,18,5.70
2017,09,20,03,19,5.70
2017,09,20,03,20,5.70
2017,09,20,03,21,5.70
2017,09,20,03,22,5.70
2017,09,20,03,23,5.70
2017,09,20,03,24,5.70
2017,09,20,03,25,5.60
2017,09,20,03,26,5.60
2017,09,20,03,27,5.60
2017,09,20,03,28,5.60
2017,09,20,03,29,5.60
2017,09,20,03,30,5.60
2017,09,20,03,31,5.60
2017,09,20,03,32,5.60
2017,09,20,03,33,5.60
2017,09,20,03,34,5.50
2017,09,20,03,35,5.50
2017,09,20,03,36,5.50
2017,09,20,03,37,5.50
2017,09,20,03,38,5.50
2017,09,20,03,39,5.40
2017,09,20,03,40,5.40
2017,09,20,03,41,5.40
2017,09,20,03,42,5.40
2017,09,20,03,43,5.40
2017,09,20,03,44,5.40
2017,09,20,03,45,5.40
2017,09,20,03,46,5.30
2017,09,20,03,47,5.30
2017,09,20,03,48,5.30
2017,09,20,03,49,5.30
2017,09,20,03,50,5.30
2017,09,20,03,51,5.30
2017,09,20,03,52,5.30
2017,09,20,03,53,5.30
2017,09,20,03,54,5.30
2017,09,20,03,55,5.30
2017,09,20,03,56,5.20
2017,09,20,03,57,5.20
2017,09,20,03,58,5.20
2017,09,20,03,59,5.20
2017,09,20,04,00,5.20
2017,09,20,04,01,5.20
2017,09,20,04,02,5.20
2017,09,20,04,03,5.20
2017,09,20,04,04,5.20
2017,09,20,04,05,5.20
2017,09,20,04,06,5.20
2017,09,20,04,07,5.20
2017,09,20,04,08,5.20
2017,09,20,04,09,5.20
2017,09,20,04,10,5.20
2017,09,20,04,11,5.20
2017,09,20,04,12,5.20
2017,09,20,04,13,5.20
2017,09,20,04,14,5.20
2017,09,20,04,15,5.20
2017,09,20,04,16,5.20
2017,09,20,04,17,5.20
2017,09,20,04,18,5.20
2017,09,20,04,19,5.20
2017,09,20,04,20,5.20
2017,09,20,04,21,5.20
2017,09,20,04,22,5.20
2017,09,20,04,23,5.20
2017,09,20,04,24,5.30
2017,09,20,04,25,5.30
2017,09,20,04,26,5.30
2017,09,20,04,27,5.30
2017,09,20,04,28,5.30
2017,09,20,04,29,5.30
2017,09,20,04,30,5.30
2017,09,20,04,31,5.30
2017,09,20,04,32,5.30
2017,09,20,04,33,5.30
2017,09,20,04,34,5.30
2017,09,20,04,35,5.30
2017,09,20,04,36,5.30
2017,09,20,04,37,5.30
2017,09,20,04,38,5.30
2017,09,20,04,39,5.30
2017,09,20,04,40,5.30
2017,09,20,04,41,5.40
2017,09,20,04,42,5.40
2017,09,20,04,43,5.40
2017,09,20,04,44,5.40
2017,09,20,04,45,5.40
2017,09,20,04,46,5.40
2017,09,20,04,47,5.40
2017,09,20,04,48,5.40
2017,09,20,04,49,5.40
2017,09,20,04,50,5.40
2017,09,20,04,51,5.40
2017,09,20,04,52,5.40
2017,09,20,04,53,5.40
2017,09,20,04,54,5.40
2017,09,20,04,55,5.40
2017,09,20,04,56,5.40
2017,09,20,04,57,5.40
2017,09,20,04,58,5.40
2017,09,20,04,59,5.40
2017,09,20,05,00,5.40
2017,09,20,05,01,5.40
2017,09,20,05,02,5.40
2017,09,20,05,03,5.50
2017,09,20,05,04,5.50
2017,09,20,05,05,5.50
2017,09,20,05,06,5.60
2017,09,20,05,07,5.60
2017,09,20,05,08,5.60
2017,09,20,05,09,5.60
2017,09,20,05,10,5.60
2017,09,20,05,11,5.70
2017,09,20,05,12,5.70
2017,09,20,05,13,5.70
2017,09,20,05,14,5.70
2017,09,20,05,15,5.80
2017,09,20,05,16,5.80
2017,09,20,05,17,5.80
2017,09,20,05,18,5.80
2017,09,20,05,19,5.80
2017,09,20,05,20,5.80
2017,09,20,05,21,5.80
2017,09,20,05,22,5.80
2017,09,20,05,23,5.90
2017,09,20,05,24,5.90
2017,09,20,05,25,5.90
2017,09,20,05,26,5.90
2017,09,20,05,27,5.90
2017,09,20,05,28,5.90
2017,09,20,05,29,5.90
2017,09,20,05,30,5.90
2017,09,20,05,31,6.00
2017,09,20,05,32,6.00
2017,09,20,05,33,6.00
2017,09,20,05,34,6.00
2017,09,20,05,35,6.00
2017,09,20,05,36,6.00
2017,09,20,05,37,6.00
2017,09,20,05,38,6.00
2017,09,20,05,39,6.00
2017,09,20,05,40,6.00
2017,09,20,05,41,6.00
2017,09,20,05,42,6.00
2017,09,20,05,43,6.00
2017,09,20,05,44,6.00
2017,09,20,05,45,6.00
2017,09,20,05,46,6.10
2017,09,20,05,47,6.10
2017,09,20,05,48,6.10
2017,09,20,05,49,6.10
2017,09,20,05,50,6.10
2017,09,20,05,51,6.10
2017,09,20,05,52,6.10
2017,09,20,05,53,6.20
2017,09,20,05,54,6.20
2017,09,20,05,55,6.20
2017,09,20,05,56,6.20
2017,09,20,05,57,6.20
2017,09,20,05,58,6.20
2017,09,20,05,59,6.20
2017,09,20,06,00,6.20
2017,09,20,06,01,6.20
2017,09,20,06,02,6.20
2017,09,20,06,03,6.20
2017,09,20,06,04,6.20
2017,09,20,06,05,6.20
2017,09,20,06,06,6.20
2017,09,20,06,07,6.20
2017,09,20,06,08,6.20
2017,09,20,06,09,6.20
2017,09,20,06,10,6.20
2017,09,20,06,11,6.20
2017,09,20,06,12,6.20
2017,09,20,06,13,6.20
2017,09,20,06,14,6.20
2017,09,20,06,15,6.20
2017,09,20,06,16,6.20
2017,09,20,06,17,6.20
2017,09,20,06,18,6.10
2017,09,20,06,19,6.10
2017,09,20,06,20,6.10
2017,09,20,06,21,6.10
2017,09,20,06,22,6.10
2017,09,20,06,23,6.10
2017,09,20,06,24,6.10
2017,09,20,06,25,6.00
2017,09,20,06,26,6.00
2017,09,20,06,27,6.00
2017,09,20,06,28,6.00
2017,09,20,06,29,6.00
2017,09,20,06,30,6.00
2017,09,20,06,31,6.00
2017,09,20,06,32,6.00
2017,09,20,06,33,6.00
2017,09,20,06,34,6.00
2017,09,20,06,35,6.00
2017,09,20,06,36,6.00
2017,09,20,06,37,6.00
2017,09,20,06,38,6.00
2017,09,20,06,39,6.00
2017,09,20,06,40,6.00
2017,09,20,06,41,6.00
2017,09,20,06,42,6.00
2017,09,20,06,43,6.00
2017,09,20,06,44,6.00
2017,09,20,06,45,6.00
2017,09,20,06,46,6.00
2017,09,20,06,47,6.00
2017,09,20,06,48,6.00
2017,09,20,06,49,6.00
2017,09,20,06,50,6.00
2017,09,20,06,51,5.90
2017,09,20,06,52,5.90
2017,09,20,06,53,5.90
2017,09,20,06,54,5.90
2017,09,20,06,55,5.90
2017,09,20,06,56,5.90
2017,09,20,06,57,5.90
2017,09,20,06,58,6.00
2017,09,20,06,59,5.90
2017,09,20,07,00,5.90
2017,09,20,07,01,5.90
2017,09,20,07,02,5.90
2017,09,20,07,03,5.90
2017,09,20,07,04,5.90
2017,09,20,07,05,6.00
2017,09,20,07,06,6.00
2017,09,20,07,07,5.90
2017,09,20,07,08,5.90
2017,09,20,07,09,5.90
2017,09,20,07,10,5.90
2017,09,20,07,11,5.90
2017,09,20,07,12,5.90
2017,09,20,07,13,5.90
2017,09,20,07,14,5.90
2017,09,20,07,15,5.90
2017,09,20,07,16,5.90
2017,09,20,07,17,5.90
2017,09,20,07,18,5.90
2017,09,20,07,19,5.90
2017,09,20,07,20,5.90
2017,09,20,07,21,5.90
2017,09,20,07,22,5.90
2017,09,20,07,23,5.90
2017,09,20,07,24,6.00
2017,09,20,07,25,6.00
2017,09,20,07,26,6.00
2017,09,20,07,27,6.00
2017,09,20,07,28,6.00
2017,09,20,07,29,6.00
2017,09,20,07,30,6.00
2017,09,20,07,31,6.00
2017,09,20,07,32,6.00
2017,09,20,07,33,6.10
2017,09,20,07,34,6.10
2017,09,20,07,35,6.10
2017,09,20,07,36,6.10
2017,09,20,07,37,6.10
2017,09,20,07,38,6.20
2017,09,20,07,39,6.20
2017,09,20,07,40,6.20
2017,09,20,07,41,6.20
2017,09,20,07,42,6.30
2017,09,20,07,43,6.30
2017,09,20,07,44,6.30
2017,09,20,07,45,6.30
2017,09,20,07,46,6.40
2017,09,20,07,47,6.40
2017,09,20,07,48,6.40
2017,09,20,07,49,6.40
2017,09,20,07,50,6.50
2017,09,20,07,51,6.50
2017,09,20,07,52,6.50
2017,09,20,07,53,6.60
2017,09,20,07,54,6.60
2017,09,20,07,55,6.60
2017,09,20,07,56,6.70
2017,09,20,07,57,6.70
2017,09,20,07,58,6.70
2017,09,20,07,59,6.80
2017,09,20,08,00,6.80
2017,09,20,08,01,6.80
2017,09,20,08,02,6.80
2017,09,20,08,03,6.90
2017,09,20,08,04,6.90
2017,09,20,08,05,6.90
2017,09,20,08,06,7.00
2017,09,20,08,07,7.00
2017,09,20,08,08,7.00
2017,09,20,08,09,7.10
2017,09,20,08,10,7.10
2017,09,20,08,11,7.10
2017,09,20,08,12,7.10
2017,09,20,08,13,7.10
2017,09,20,08,14,7.10
2017,09,20,08,15,7.20
2017,09,20,08,16,7.20
2017,09,20,08,17,7.20
2017,09,20,08,18,7.20
2017,09,20,08,19,7.20
2017,09,20,08,20,7.20
2017,09,20,08,21,7.30
2017,09,20,08,22,7.30
2017,09,20,08,23,7.30
2017,09,20,08,24,7.30
2017,09,20,08,25,7.40
2017,09,20,08,26,7.40
2017,09,20,08,27,7.40
2017,09,20,08,28,7.50
2017,09,20,08,29,7.50
2017,09,20,08,30,7.50
2017,09,20,08,31,7.60
2017,09,20,08,32,7.60
2017,09,20,08,33,7.70
2017,09,20,08,34,7.70
2017,09,20,08,35,7.80
2017,09,20,08,36,7.80
2017,09,20,08,37,7.80
2017,09,20,08,38,7.90
2017,09,20,08,39,8.00
2017,09,20,08,40,8.00
2017,09,20,08,41,8.10
2017,09,20,08,42,8.20
2017,09,20,08,43,8.20
2017,09,20,08,44,8.20
2017,09,20,08,45,8.30
2017,09,20,08,46,8.40
2017,09,20,08,47,8.40
2017,09,20,08,48,8.50
2017,09,20,08,49,8.50
2017,09,20,08,50,8.60
2017,09,20,08,51,8.60
2017,09,20,08,52,8.70
2017,09,20,08,53,8.70
2017,09,20,08,54,8.70
2017,09,20,08,55,8.80
2017,09,20,08,56,8.80
2017,09,20,08,57,8.90
2017,09,20,08,58,8.90
2017,09,20,08,59,9.00
2017,09,20,09,00,9.10
2017,09,20,09,01,9.20
2017,09,20,09,02,9.20
2017,09,20,09,03,9.30
2017,09,20,09,04,9.30
2017,09,20,09,05,9.30
2017,09,20,09,06,9.40
2017,09,20,09,07,9.40
2017,09,20,09,08,9.40
2017,09,20,09,09,9.50
2017,09,20,09,10,9.50
2017,09,20,09,11,9.60
2017,09,20,09,12,9.70
2017,09,20,09,13,9.70
2017,09,20,09,14,9.80
2017,09,20,09,15,9.90
2017,09,20,09,16,10.00
2017,09,20,09,17,10.00
2017,09,20,09,18,10.00
2017,09,20,09,19,10.10
2017,09,20,09,20,10.20
2017,09,20,09,21,10.30
2017,09,20,09,22,10.30
2017,09,20,09,23,10.30
2017,09,20,09,24,10.30
2017,09,20,09,25,10.40
2017,09,20,09,26,10.50
2017,09,20,09,27,10.60
2017,09,20,09,28,10.60
2017,09,20,09,29,10.70
2017,09,20,09,30,10.80
2017,09,20,09,31,10.90
2017,09,20,09,32,10.90
2017,09,20,09,33,10.90
2017,09,20,09,34,10.90
2017,09,20,09,35,10.90
2017,09,20,09,36,10.90
2017,09,20,09,37,11.00
2017,09,20,09,38,11.00
2017,09,20,09,39,11.00
2017,09,20,09,40,11.10
2017,09,20,09,41,11.10
2017,09,20,09,42,11.10
2017,09,20,09,43,11.10
2017,09,20,09,44,11.10
2017,09,20,09,45,11.10
2017,09,20,09,46,11.20
2017,09,20,09,47,11.20
2017,09,20,09,48,11.30
2017,09,20,09,49,11.30
2017,09,20,09,50,11.30
2017,09,20,09,51,11.30
2017,09,20,09,52,11.30
2017,09,20,09,53,11.40
2017,09,20,09,54,11.40
2017,09,20,09,55,11.40
2017,09,20,09,56,11.50
2017,09,20,09,57,11.50
2017,09,20,09,58,11.50
2017,09,20,09,59,11.60
2017,09,20,10,00,11.60
2017,09,20,10,01,11.60
2017,09,20,10,02,11.70
2017,09,20,10,03,11.70
2017,09,20,10,04,11.70
2017,09,20,10,05,11.70
2017,09,20,10,06,11.80
2017,09,20,10,07,11.80
2017,09,20,10,08,11.80
2017,09,20,10,09,11.80
2017,09,20,10,10,11.80
2017,09,20,10,11,11.80
2017,09,20,10,12,11.80
2017,09,20,10,13,11.90
2017,09,20,10,14,11.90
2017,09,20,10,15,12.00
2017,09,20,10,16,12.00
2017,09,20,10,17,12.10
2017,09,20,10,18,12.10
2017,09,20,10,19,12.10
2017,09,20,10,20,12.20
2017,09,20,10,21,12.20
2017,09,20,10,22,12.20
2017,09,20,10,23,12.20
2017,09,20,10,24,12.20
2017,09,20,10,25,12.20
2017,09,20,10,26,12.10
2017,09,20,10,27,12.10
2017,09,20,10,28,12.10
2017,09,20,10,29,12.00
2017,09,20,10,30,12.00
2017,09,20,10,31,11.90
2017,09,20,10,32,11.90
2017,09,20,10,33,11.90
2017,09,20,10,34,11.90
2017,09,20,10,35,12.00
2017,09,20,10,36,12.00
2017,09,20,10,37,12.00
2017,09,20,10,38,12.00
2017,09,20,10,39,12.00
2017,09,20,10,40,12.10
2017,09,20,10,41,12.20
2017,09,20,10,42,12.30
2017,09,20,10,43,12.30
2017,09,20,10,44,12.30
2017,09,20,10,45,12.30
2017,09,20,10,46,12.30
2017,09,20,10,47,12.30
2017,09,20,10,48,12.40
2017,09,20,10,49,12.40
2017,09,20,10,50,12.50
2017,09,20,10,51,12.60
2017,09,20,10,52,12.60
2017,09,20,10,53,12.60
2017,09,20,10,54,12.70
2017,09,20,10,55,12.70
2017,09,20,10,56,12.70
2017,09,20,10,57,12.70
2017,09,20,10,58,12.70
2017,09,20,10,59,12.80
2017,09,20,11,00,12.90
2017,09,20,11,01,12.90
2017,09,20,11,02,12.90
2017,09,20,11,03,12.90
2017,09,20,11,04,12.90
2017,09,20,11,05,12.90
2017,09,20,11,06,12.90
2017,09,20,11,07,12.90
2017,09,20,11,08,13.00
2017,09,20,11,09,13.10
2017,09,20,11,10,13.10
2017,09,20,11,11,13.10
2017,09,20,11,12,13.20
2017,09,20,11,13,13.20
2017,09,20,11,14,13.20
2017,09,20,11,15,13.10
2017,09,20,11,16,13.10
2017,09,20,11,17,13.10
2017,09,20,11,18,13.10
2017,09,20,11,19,13.10
2017,09,20,11,20,13.10
2017,09,20,11,21,13.10
2017,09,20,11,22,13.10
2017,09,20,11,23,13.00
2017,09,20,11,24,13.00
2017,09,20,11,25,13.00
2017,09,20,11,26,13.00
2017,09,20,11,27,13.00
2017,09,20,11,28,13.00
2017,09,20,11,29,13.10
2017,09,20,11,30,13.20
2017,09,20,11,31,13.20
2017,09,20,11,32,13.20
2017,09,20,11,33,13.30
2017,09,20,11,34,13.20
2017,09,20,11,35,13.10
2017,09,20,11,36,13.10
2017,09,20,11,37,13.00
2017,09,20,11,38,13.00
2017,09,20,11,39,13.00
2017,09,20,11,40,13.10
2017,09,20,11,41,13.10
2017,09,20,11,42,13.20
2017,09,20,11,43,13.20
2017,09,20,11,44,13.30
2017,09,20,11,45,13.30
2017,09,20,11,46,13.30
2017,09,20,11,47,13.30
2017,09,20,11,48,13.30
2017,09,20,11,49,13.40
2017,09,20,11,50,13.40
2017,09,20,11,51,13.50
2017,09,20,11,52,13.50
2017,09,20,11,53,13.60
2017,09,20,11,54,13.60
2017,09,20,11,55,13.60
2017,09,20,11,56,13.60
2017,09,20,11,57,13.60
2017,09,20,11,58,13.70
2017,09,20,11,59,13.70
2017,09,20,12,00,13.80
2017,09,20,12,01,13.80
2017,09,20,12,02,13.70
2017,09,20,12,03,13.70
2017,09,20,12,04,13.70
2017,09,20,12,05,13.60
2017,09,20,12,06,13.60
2017,09,20,12,07,13.50
2017,09,20,12,08,13.50
2017,09,20,12,09,13.40
2017,09,20,12,10,13.40
2017,09,20,12,11,13.40
2017,09,20,12,12,13.30
2017,09,20,12,13,13.20
2017,09,20,12,14,13.10
2017,09,20,12,15,13.10
2017,09,20,12,16,13.10
2017,09,20,12,17,13.10
2017,09,20,12,18,13.20
2017,09,20,12,19,13.20
2017,09,20,12,20,13.20
2017,09,20,12,21,13.30
2017,09,20,12,22,13.30
2017,09,20,12,23,13.30
2017,09,20,12,24,13.30
2017,09,20,12,25,13.30
2017,09,20,12,26,13.30
2017,09,20,12,27,13.30
2017,09,20,12,28,13.40
2017,09,20,12,29,13.50
2017,09,20,12,30,13.50
2017,09,20,12,31,13.60
2017,09,20,12,32,13.60
2017,09,20,12,33,13.60
2017,09,20,12,34,13.60
2017,09,20,12,35,13.60
2017,09,20,12,36,13.60
2017,09,20,12,37,13.60
2017,09,20,12,38,13.60
2017,09,20,12,39,13.50
2017,09,20,12,40,13.50
2017,09,20,12,41,13.50
2017,09,20,12,42,13.60
2017,09,20,12,43,13.60
2017,09,20,12,44,13.60
2017,09,20,12,45,13.70
2017,09,20,12,46,13.70
2017,09,20,12,47,13.70
2017,09,20,12,48,13.70
2017,09,20,12,49,13.70
2017,09,20,12,50,13.80
2017,09,20,12,51,13.80
2017,09,20,12,52,13.90
2017,09,20,12,53,13.90
2017,09,20,12,54,13.90
2017,09,20,12,55,13.90
2017,09,20,12,56,13.90
2017,09,20,12,57,13.90
2017,09,20,12,58,14.00
2017,09,20,12,59,14.10
2017,09,20,13,00,14.10
2017,09,20,13,01,14.10
2017,09,20,13,02,14.10
2017,09,20,13,03,14.10
2017,09,20,13,04,14.10
2017,09,20,13,05,14.10
2017,09,20,13,06,14.10
2017,09,20,13,07,14.10
2017,09,20,13,08,14.10
2017,09,20,13,09,14.10
2017,09,20,13,10,14.10
2017,09,20,13,11,14.10
2017,09,20,13,12,14.00
2017,09,20,13,13,14.00
2017,09,20,13,14,14.00
2017,09,20,13,15,13.90
2017,09,20,13,16,13.80
2017,09,20,13,17,13.80
2017,09,20,13,18,13.80
2017,09,20,13,19,13.80
2017,09,20,13,20,13.80
2017,09,20,13,21,13.80
2017,09,20,13,22,13.90
2017,09,20,13,23,13.90
2017,09,20,13,24,14.00
2017,09,20,13,25,14.10
2017,09,20,13,26,14.10
2017,09,20,13,27,14.10
2017,09,20,13,28,14.10
2017,09,20,13,29,14.10
2017,09,20,13,30,14.10
2017,09,20,13,31,14.20
2017,09,20,13,32,14.20
2017,09,20,13,33,14.20
2017,09,20,13,34,14.20
2017,09,20,13,35,14.10
2017,09,20,13,36,14.10
2017,09,20,13,37,14.00
2017,09,20,13,38,14.00
2017,09,20,13,39,14.00
2017,09,20,13,40,13.90
2017,09,20,13,41,13.90
2017,09,20,13,42,13.90
2017,09,20,13,43,14.00
2017,09,20,13,44,14.10
2017,09,20,13,45,14.10
2017,09,20,13,46,14.20
2017,09,20,13,47,14.10
2017,09,20,13,48,14.10
2017,09,20,13,49,14.10
2017,09,20,13,50,14.10
2017,09,20,13,51,14.10
2017,09,20,13,52,14.10
2017,09,20,13,53,14.00
2017,09,20,13,54,14.00
2017,09,20,13,55,14.00
2017,09,20,13,56,14.00
2017,09,20,13,57,13.90
2017,09,20,13,58,13.90
2017,09,20,13,59,13.90
2017,09,20,14,00,13.90
2017,09,20,14,01,13.90
2017,09,20,14,02,14.00
2017,09,20,14,03,14.00
2017,09,20,14,04,14.10
2017,09,20,14,05,14.10
2017,09,20,14,06,14.10
2017,09,20,14,07,14.20
2017,09,20,14,08,14.30
2017,09,20,14,09,14.40
2017,09,20,14,10,14.40
2017,09,20,14,11,14.50
2017,09,20,14,12,14.50
2017,09,20,14,13,14.60
2017,09,20,14,14,14.60
2017,09,20,14,15,14.60
2017,09,20,14,16,14.60
2017,09,20,14,17,14.60
2017,09,20,14,18,14.50
2017,09,20,14,19,14.50
2017,09,20,14,20,14.40
2017,09,20,14,21,14.40
2017,09,20,14,22,14.40
2017,09,20,14,23,14.40
2017,09,20,14,24,14.40
2017,09,20,14,25,14.50
2017,09,20,14,26,14.50
2017,09,20,14,27,14.60
2017,09,20,14,28,14.60
2017,09,20,14,29,14.60
2017,09,20,14,30,14.70
2017,09,20,14,31,14.70
2017,09,20,14,32,14.80
2017,09,20,14,33,14.90
2017,09,20,14,34,14.90
2017,09,20,14,35,14.90
2017,09,20,14,36,14.90
2017,09,20,14,37,14.90
2017,09,20,14,38,14.90
2017,09,20,14,39,14.80
2017,09,20,14,40,14.80
2017,09,20,14,41,14.80
2017,09,20,14,42,14.90
2017,09,20,14,43,14.90
2017,09,20,14,44,14.90
2017,09,20,14,45,14.90
2017,09,20,14,46,14.90
2017,09,20,14,47,14.80
2017,09,20,14,48,14.80
2017,09,20,14,49,14.80
2017,09,20,14,50,14.80
2017,09,20,14,51,14.80
2017,09,20,14,52,14.80
2017,09,20,14,53,14.80
2017,09,20,14,54,14.80
2017,09,20,14,55,14.80
2017,09,20,14,56,14.80
2017,09,20,14,57,14.70
2017,09,20,14,58,14.70
2017,09,20,14,59,14.60
2017,09,20,15,00,14.60
2017,09,20,15,01,14.60
2017,09,20,15,02,14.60
2017,09,20,15,03,14.60
2017,09,20,15,04,14.70
2017,09,20,15,05,14.70
2017,09,20,15,06,14.70
2017,09,20,15,07,14.80
2017,09,20,15,08,14.80
2017,09,20,15,09,14.80
2017,09,20,15,10,14.80
2017,09,20,15,11,14.80
2017,09,20,15,12,14.80
2017,09,20,15,13,14.80
2017,09,20,15,14,14.90
2017,09,20,15,15,14.90
2017,09,20,15,16,14.90
2017,09,20,15,17,14.90
2017,09,20,15,18,14.90
2017,09,20,15,19,14.90
2017,09,20,15,20,14.90
2017,09,20,15,21,14.90
2017,09,20,15,22,14.90
2017,09,20,15,23,15.00
2017,09,20,15,24,15.10
2017,09,20,15,25,15.10
2017,09,20,15,26,15.20
2017,09,20,15,27,15.20
2017,09,20,15,28,15.20
2017,09,20,15,29,15.20
2017,09,20,15,30,15.20
2017,09,20,15,31,15.20
2017,09,20,15,32,15.20
2017,09,20,15,33,15.20
2017,09,20,15,34,15.30
2017,09,20,15,35,15.20
2017,09,20,15,36,15.20
2017,09,20,15,37,15.10
2017,09,20,15,38,15.00
2017,09,20,15,39,15.00
2017,09,20,15,40,14.90
2017,09,20,15,41,14.90
2017,09,20,15,42,14.80
2017,09,20,15,43,14.80
2017,09,20,15,44,14.80
2017,09,20,15,45,14.70
2017,09,20,15,46,14.70
2017,09,20,15,47,14.70
2017,09,20,15,48,14.70
2017,09,20,15,49,14.70
2017,09,20,15,50,14.70
2017,09,20,15,51,14.70
2017,09,20,15,52,14.70
2017,09,20,15,53,14.70
2017,09,20,15,54,14.70
2017,09,20,15,55,14.70
2017,09,20,15,56,14.70
2017,09,20,15,57,14.70
2017,09,20,15,58,14.80
2017,09,20,15,59,14.80
2017,09,20,16,00,14.80
2017,09,20,16,01,14.70
2017,09,20,16,02,14.70
2017,09,20,16,03,14.70
2017,09,20,16,04,14.70
2017,09,20,16,05,14.70
2017,09,20,16,06,14.80
2017,09,20,16,07,14.80
2017,09,20,16,08,14.80
2017,09,20,16,09,14.80
2017,09,20,16,10,14.80
2017,09,20,16,11,14.80
2017,09,20,16,12,14.80
2017,09,20,16,13,14.80
2017,09,20,16,14,14.90
2017,09,20,16,15,14.90
2017,09,20,16,16,14.90
2017,09,20,16,17,14.90
2017,09,20,16,18,14.90
2017,09,20,16,19,14.90
2017,09,20,16,20,14.90
2017,09,20,16,21,14.90
2017,09,20,16,22,14.90
2017,09,20,16,23,14.90
2017,09,20,16,24,14.80
2017,09,20,16,25,14.80
2017,09,20,16,26,14.70
2017,09,20,16,27,14.70
2017,09,20,16,28,14.70
2017,09,20,16,29,14.60
2017,09,20,16,30,14.60
2017,09,20,16,31,14.60
2017,09,20,16,32,14.60
2017,09,20,16,33,14.50
2017,09,20,16,34,14.50
2017,09,20,16,35,14.50
2017,09,20,16,36,14.50
2017,09,20,16,37,14.50
2017,09,20,16,38,14.50
2017,09,20,16,39,14.50
2017,09,20,16,40,14.50
2017,09,20,16,41,14.50
2017,09,20,16,42,14.50
2017,09,20,16,43,14.50
2017,09,20,16,44,14.50
2017,09,20,16,45,14.60
2017,09,20,16,46,14.60
2017,09,20,16,47,14.60
2017,09,20,16,48,14.60
2017,09,20,16,49,14.60
2017,09,20,16,50,14.60
2017,09,20,16,51,14.60
2017,09,20,16,52,14.60
2017,09,20,16,53,14.60
2017,09,20,16,54,14.60
2017,09,20,16,55,14.60
2017,09,20,16,56,14.60
2017,09,20,16,57,14.60
2017,09,20,16,58,14.60
2017,09,20,16,59,14.60
2017,09,20,17,00,14.60
2017,09,20,17,01,14.60
2017,09,20,17,02,14.60
2017,09,20,17,03,14.60
2017,09,20,17,04,14.60
2017,09,20,17,05,14.60
2017,09,20,17,06,14.60
2017,09,20,17,07,14.60
2017,09,20,17,08,14.60
2017,09,20,17,09,14.60
2017,09,20,17,10,14.60
2017,09,20,17,11,14.70
2017,09,20,17,12,14.70
2017,09,20,17,13,14.70
2017,09,20,17,14,14.70
2017,09,20,17,15,14.70
2017,09,20,17,16,14.70
2017,09,20,17,17,14.70
2017,09,20,17,18,14.70
2017,09,20,17,19,14.70
2017,09,20,17,20,14.70
2017,09,20,17,21,14.70
2017,09,20,17,22,14.70
2017,09,20,17,23,14.70
2017,09,20,17,24,14.70
2017,09,20,17,25,14.80
2017,09,20,17,26,14.80
2017,09,20,17,27,14.80
2017,09,20,17,28,14.80
2017,09,20,17,29,14.80
2017,09,20,17,30,14.80
2017,09,20,17,31,14.80
2017,09,20,17,32,14.80
2017,09,20,17,33,14.80
2017,09,20,17,34,14.80
2017,09,20,17,35,14.80
2017,09,20,17,36,14.80
2017,09,20,17,37,14.80
2017,09,20,17,38,14.80
2017,09,20,17,39,14.80
2017,09,20,17,40,14.80
2017,09,20,17,41,14.80
2017,09,20,17,42,14.80
2017,09,20,17,43,14.80